Location: Banksville Park
(38.5557°N, 75.1182°W)
Time: 02:23:08
(UTC+00:00)

Cosmos 1174 - Pass Details

Date: 19 September 2020
Orbit: 362 x 1155 km, 66.1° (Epoch: 30 October)

Event Time Altitude Azimuth Distance (km) Brightness Sun altitude
Rises 00:20:15 0° 197° (SSW) 2,780 7.4 -15.8°
Reaches altitude 10° 00:22:16 10° 194° (SSW) 1,993 6.6 -16.1°
Maximum altitude 00:26:45 61° 114° (ESE) 834 4.4 -17.0°
Drops below altitude 10° 00:32:28 10° 35° (NE) 2,535 7.0 -18.1°
Sets 00:35:18 0° 33° (NNE) 3,608 7.8 -18.6°
